Location: Unspecified
(44.9215°N, 0.0000°E)
Time: 15:40:12
(UTC+00:00)

A-11 Canister half - Visible Passes

Search period start: 04 April 2026 00:00
Search period end: 14 April 2026 00:00
Orbit: 1513 x 1686 km, 47.2° (Epoch: 28 March)

Date Brightness Start Highest point End Pass type
(mag) Time Alt. Az. Time Alt. Az. Time Alt. Az.
11 Apr 10.9 04:41:47 10° S 04:48:11 21° SE 04:54:40 10° E visible
12 Apr 10.9 04:19:14 10° SSE 04:25:16 19° SE 04:31:21 10° E visible
13 Apr 10.9 03:56:44 10° SSE 04:02:20 18° SE 04:08:00 10° E visible
